Location: *
(43.4667°N, 11.6833°E)
Time: 03:23:12
(UTC+00:00)

Cosmos 1825 - Pass Details

Date: 19 July 2019
Orbit: 504 x 509 km, 82.5° (Epoch: 20 August)

Event Time Altitude Azimuth Distance (km) Brightness Sun altitude
Exits shadow 19:42:41 12° 121° (ESE) 1,622 4.1 -8.8°
Maximum altitude 19:44:38 16° 87° (E) 1,385 3.9 -9.0°
Drops below altitude 10° 19:46:59 10° 48° (NE) 1,726 4.8 -9.4°
Sets 19:49:44 0° 27° (NNE) 2,616 6.0 -9.7°
